| time (UTC) | temp F | wind direction | speed MPH | gust MPH | rain 1hr in | rain 24hr in | rain mn in | humidity % | barometer mb |
| 20260505222836 | 49 | 157 | 0.0 | 3.0 | 0.00 | 0.26 | 0.26 | 93 | 1011.9 |
| 20260505222333 | 49 | 128 | 2.0 | 2.0 | 0.00 | 0.26 | 0.26 | 93 | 1012.2 |
| 20260505221830 | 49 | 92 | 2.0 | 3.0 | 0.00 | 0.26 | 0.26 | 93 | 1012.2 |
| 20260505221326 | 49 | 157 | 0.0 | 2.0 | 0.00 | 0.26 | 0.26 | 94 | 1012.6 |
| 20260505220823 | 48 | 107 | 0.0 | 4.0 | 0.00 | 0.26 | 0.26 | 94 | 1012.2 |
| 20260505220320 | 48 | 108 | 2.0 | 3.0 | 0.00 | 0.26 | 0.26 | 93 | 1012.1 |
| 20260505215818 | 49 | 111 | 2.0 | 3.0 | 0.00 | 0.26 | 0.26 | 94 | 1012.2 |
| 20260505215316 | 49 | 83 | 0.0 | 3.0 | 0.00 | 0.26 | 0.26 | 94 | 1012.2 |
| 20260505214814 | 49 | 71 | 2.0 | 3.0 | 0.00 | 0.26 | 0.26 | 93 | 1012.2 |
| 20260505214311 | 49 | 110 | 1.0 | 2.0 | 0.00 | 0.26 | 0.26 | 94 | 1012.4 |
| 20260505213808 | 49 | 65 | 2.0 | 3.0 | 0.00 | 0.26 | 0.26 | 94 | 1012.5 |
| 20260505213306 | 48 | 195 | 0.0 | 2.0 | 0.00 | 0.26 | 0.26 | 94 | 1012.6 |
| 20260505212801 | 48 | 89 | 1.0 | 7.0 | 0.00 | 0.26 | 0.26 | 94 | 1012.4 |
| 20260505212259 | 49 | 177 | 0.0 | 3.0 | 0.00 | 0.26 | 0.26 | 94 | 1012.3 |
| 20260505211755 | 49 | 85 | 2.0 | 4.0 | 0.00 | 0.26 | 0.26 | 94 | 1011.9 |
| 20260505211253 | 48 | 72 | 2.0 | 6.0 | 0.00 | 0.26 | 0.26 | 93 | 1012.6 |
| 20260505210749 | 48 | 99 | 3.0 | 3.0 | 0.05 | 0.26 | 0.26 | 93 | 1012.7 |
| 20260505210246 | 48 | 124 | 2.0 | 4.0 | 0.05 | 0.26 | 0.26 | 92 | 1013.0 |
| 20260505205743 | 48 | 113 | 2.0 | 2.0 | 0.00 | 0.25 | 0.25 | 92 | 1013.0 |
| 20260505205242 | 49 | 151 | 2.0 | 6.0 | 0.00 | 0.25 | 0.25 | 92 | 1012.9 |
| 20260505204738 | 49 | 121 | 1.0 | 4.0 | 0.02 | 0.25 | 0.25 | 91 | 1013.1 |
| 20260505204236 | 49 | 82 | 2.0 | 4.0 | 0.02 | 0.25 | 0.25 | 90 | 1013.2 |
| 20260505203733 | 49 | 191 | 0.0 | 4.0 | 0.00 | 0.24 | 0.24 | 90 | 1013.0 |
| 20260505203229 | 49 | 147 | 0.0 | 5.0 | 0.00 | 0.24 | 0.24 | 89 | 1013.0 |
| 20260505202725 | 49 | 131 | 0.0 | 5.0 | 0.00 | 0.24 | 0.24 | 90 | 1013.0 |
| 20260505202221 | 49 | 93 | 3.0 | 5.0 | 0.00 | 0.24 | 0.24 | 90 | 1013.0 |
| 20260505201718 | 49 | 140 | 1.0 | 4.0 | 0.00 | 0.24 | 0.24 | 89 | 1013.0 |
| 20260505201216 | 49 | 126 | 0.0 | 4.0 | 0.00 | 0.24 | 0.24 | 91 | 1012.5 |
| 20260505200714 | 49 | 114 | 3.0 | 6.0 | 0.00 | 0.24 | 0.24 | 90 | 1013.2 |
| 20260505200211 | 49 | 110 | 3.0 | 5.0 | 0.00 | 0.24 | 0.24 | 88 | 1013.4 |
| 20260505195706 | 50 | 288 | 0.0 | 3.0 | 0.00 | 0.24 | 0.24 | 89 | 1013.4 |
| 20260505195204 | 49 | 98 | 2.0 | 8.0 | 0.00 | 0.24 | 0.24 | 88 | 1013.1 |
| 20260505194701 | 49 | 100 | 3.0 | 4.0 | 0.00 | 0.24 | 0.24 | 88 | 1013.2 |
| 20260505194157 | 49 | 138 | 1.0 | 9.0 | 0.00 | 0.24 | 0.24 | 87 | 1013.3 |
| 20260505193653 | 50 | 112 | 4.0 | 8.0 | 0.00 | 0.24 | 0.24 | 87 | 1013.6 |
| 20260505193151 | 50 | 125 | 5.0 | 5.0 | 0.00 | 0.24 | 0.24 | 86 | 1013.3 |
| 20260505192649 | 50 | 52 | 1.0 | 5.0 | 0.00 | 0.24 | 0.24 | 85 | 1013.4 |
| 20260505192146 | 50 | 119 | 1.0 | 5.0 | 0.00 | 0.24 | 0.24 | 85 | 1013.3 |
| 20260505191644 | 50 | 120 | 3.0 | 5.0 | 0.00 | 0.24 | 0.24 | 85 | 1013.2 |
| 20260505191143 | 50 | 110 | 3.0 | 6.0 | 0.00 | 0.24 | 0.24 | 84 | 1012.8 |
| 20260505190638 | 51 | 173 | 1.0 | 8.0 | 0.00 | 0.24 | 0.24 | 85 | 1012.9 |
| 20260505190138 | 51 | 168 | 3.0 | 6.0 | 0.00 | 0.24 | 0.24 | 85 | 1012.9 |
| 20260505185635 | 52 | 24 | 2.0 | 6.0 | 0.00 | 0.24 | 0.24 | 87 | 1012.8 |
| 20260505185132 | 52 | 159 | 4.0 | 5.0 | 0.00 | 0.24 | 0.24 | 85 | 1012.8 |
| 20260505184628 | 52 | 104 | 2.0 | 6.0 | 0.00 | 0.24 | 0.24 | 88 | 1012.7 |
| 20260505184125 | 52 | 137 | 1.0 | 5.0 | 0.00 | 0.24 | 0.24 | 88 | 1012.7 |
| 20260505183622 | 52 | 116 | 0.0 | 3.0 | 0.00 | 0.24 | 0.24 | 89 | 1012.9 |
| 20260505183120 | 53 | 109 | 3.0 | 4.0 | 0.00 | 0.24 | 0.24 | 89 | 1013.3 |
| 20260505182616 | 52 | 190 | 0.0 | 2.0 | 0.00 | 0.24 | 0.24 | 89 | 1013.2 |
| 20260505182113 | 52 | 148 | 3.0 | 4.0 | 0.00 | 0.24 | 0.24 | 90 | 1012.7 |
| 20260505181609 | 52 | 91 | 0.0 | 6.0 | 0.00 | 0.24 | 0.24 | 88 | 1012.9 |
| 20260505181107 | 52 | 133 | 0.0 | 2.0 | 0.00 | 0.24 | 0.24 | 88 | 1013.4 |
| 20260505180602 | 52 | 124 | 2.0 | 4.0 | 0.00 | 0.24 | 0.24 | 89 | 1013.5 |
| 20260505180100 | 53 | 114 | 2.0 | 3.0 | 0.00 | 0.24 | 0.24 | 87 | 1013.6 |
| 20260505175555 | 52 | 108 | 2.0 | 8.0 | 0.00 | 0.24 | 0.24 | 86 | 1013.5 |
| 20260505175052 | 52 | 123 | 1.0 | 5.0 | 0.00 | 0.24 | 0.24 | 89 | 1013.4 |
| 20260505174550 | 53 | 113 | 0.0 | 9.0 | 0.00 | 0.24 | 0.24 | 88 | 1013.4 |
| 20260505174045 | 53 | 146 | 3.0 | 7.0 | 0.00 | 0.24 | 0.24 | 88 | 1013.5 |
| 20260505173537 | 54 | 135 | 0.0 | 3.0 | 0.00 | 0.24 | 0.24 | 89 | 1013.5 |
| 20260505173033 | 55 | 119 | 0.0 | 2.0 | 0.00 | 0.24 | 0.24 | 89 | 1013.3 |
| 20260505172531 | 55 | 135 | 1.0 | 2.0 | 0.00 | 0.24 | 0.24 | 89 | 1013.1 |
| 20260505172027 | 55 | 116 | 0.0 | 3.0 | 0.00 | 0.24 | 0.24 | 88 | 1013.3 |
| 20260505171522 | 54 | 114 | 0.0 | 2.0 | 0.00 | 0.24 | 0.24 | 89 | 1013.2 |
| 20260505171020 | 54 | 220 | 0.0 | 2.0 | 0.00 | 0.24 | 0.24 | 90 | 1013.6 |
| 20260505170516 | 54 | 236 | 1.0 | 2.0 | 0.00 | 0.24 | 0.24 | 90 | 1013.0 |
| 20260505170013 | 54 | 57 | 0.0 | 1.0 | 0.02 | 0.24 | 0.24 | 88 | 1013.0 |
| 20260505165508 | 55 | 256 | 0.0 | 2.0 | 0.02 | 0.24 | 0.24 | 86 | 1012.9 |
| 20260505165004 | 55 | 111 | 1.0 | 2.0 | 0.00 | 0.24 | 0.24 | 85 | 1012.7 |
| 20260505164500 | 56 | 147 | 2.0 | 2.0 | 0.00 | 0.24 | 0.24 | 85 | 1012.4 |
| 20260505163958 | 56 | 272 | 1.0 | 4.0 | 0.00 | 0.24 | 0.24 | 79 | 1012.4 |
| 20260505163457 | 57 | 100 | 1.0 | 2.0 | 0.00 | 0.24 | 0.24 | 78 | 1012.7 |
| 20260505162956 | 57 | 65 | 2.0 | 2.0 | 0.00 | 0.24 | 0.24 | 81 | 1012.6 |
| 20260505162451 | 57 | 70 | 0.0 | 2.0 | 0.00 | 0.24 | 0.24 | 77 | 1012.7 |
| 20260505161948 | 57 | 56 | 1.0 | 3.0 | 0.00 | 0.24 | 0.24 | 79 | 1012.6 |
| 20260505161445 | 56 | 118 | 2.0 | 3.0 | 0.00 | 0.24 | 0.24 | 82 | 1012.4 |
| 20260505160942 | 56 | 216 | 2.0 | 3.0 | 0.00 | 0.24 | 0.24 | 78 | 1012.7 |
| 20260505160440 | 56 | 104 | 3.0 | 4.0 | 0.00 | 0.24 | 0.24 | 79 | 1012.8 |
| 20260505152916 | 56 | 37 | 2.0 | 7.0 | 0.00 | 0.24 | 0.24 | 80 | 1012.1 |
| 20260505152413 | 56 | 119 | 3.0 | 5.0 | 0.00 | 0.24 | 0.24 | 82 | 1012.2 |
| 20260505151908 | 56 | 106 | 2.0 | 7.0 | 0.00 | 0.24 | 0.24 | 81 | 1011.9 |
| 20260505151404 | 56 | 288 | 1.0 | 3.0 | 0.00 | 0.24 | 0.24 | 87 | 1012.1 |
| 20260505150901 | 55 | 272 | 0.0 | 3.0 | 0.00 | 0.24 | 0.24 | 88 | 1012.2 |
| 20260505150358 | 55 | 354 | 0.0 | 4.0 | 0.00 | 0.24 | 0.24 | 92 | 1012.0 |
| 20260505140317 | 51 | 52 | 2.0 | 4.0 | 0.00 | 0.24 | 0.24 | 98 | 1011.9 |
| 20260505130240 | 48 | 125 | 4.0 | 7.0 | 0.17 | 0.23 | 0.23 | 97 | 1010.7 |
| 20260505124731 | 49 | 116 | 3.0 | 5.0 | 0.17 | 0.19 | 0.19 | 96 | 1013.1 |
| 20260505124228 | 49 | 137 | 1.0 | 4.0 | 0.17 | 0.18 | 0.18 | 96 | 1012.9 |
| 20260505123723 | 49 | 79 | 0.0 | 5.0 | 0.14 | 0.17 | 0.17 | 96 | 1013.0 |
| 20260505123220 | 49 | 96 | 2.0 | 4.0 | 0.05 | 0.15 | 0.15 | 96 | 1012.6 |
| 20260505122717 | 49 | 123 | 3.0 | 7.0 | 0.00 | 0.14 | 0.14 | 96 | 1012.5 |
| 20260505122214 | 50 | 137 | 2.0 | 4.0 | 0.00 | 0.14 | 0.14 | 96 | 1012.5 |
| 20260505121710 | 50 | 148 | 1.0 | 8.0 | 0.00 | 0.14 | 0.14 | 96 | 1012.0 |
| 20260505121207 | 50 | 131 | 2.0 | 7.0 | 0.00 | 0.14 | 0.14 | 96 | 1012.2 |
| 20260505120704 | 50 | 117 | 3.0 | 6.0 | 0.02 | 0.14 | 0.14 | 96 | 1012.0 |
| 20260505120159 | 51 | 135 | 5.0 | 8.0 | 0.07 | 0.14 | 0.14 | 96 | 1011.8 |
| 20260505115653 | 51 | 137 | 3.0 | 8.0 | 0.24 | 0.14 | 0.14 | 95 | 1011.7 |
| 20260505115151 | 51 | 272 | 1.0 | 4.0 | 0.40 | 0.13 | 0.13 | 95 | 1011.7 |
| 20260505114648 | 52 | 143 | 4.0 | 6.0 | 0.26 | 0.09 | 0.09 | 94 | 1011.3 |
| 20260505114144 | 52 | 87 | 3.0 | 5.0 | 0.05 | 0.06 | 0.06 | 94 | 1012.1 |
| 20260505113641 | 52 | 148 | 2.0 | 4.0 | 0.00 | 0.05 | 0.05 | 94 | 1011.5 |
| 20260505113137 | 53 | 99 | 0.0 | 5.0 | 0.00 | 0.05 | 0.05 | 94 | 1011.0 |
| 20260505112633 | 53 | 92 | 1.0 | 3.0 | 0.00 | 0.05 | 0.05 | 93 | 1010.9 |
| 20260505112132 | 53 | 115 | 3.0 | 4.0 | 0.00 | 0.05 | 0.05 | 92 | 1010.5 |
| 20260505111625 | 53 | 88 | 2.0 | 3.0 | 0.00 | 0.05 | 0.05 | 92 | 1010.5 |
| 20260505111122 | 53 | 170 | 0.0 | 2.0 | 0.00 | 0.05 | 0.05 | 92 | 1010.2 |
| 20260505110618 | 53 | 149 | 2.0 | 4.0 | 0.05 | 0.05 | 0.05 | 91 | 1010.1 |
| 20260505110115 | 54 | 183 | 0.0 | 4.0 | 0.24 | 0.05 | 0.05 | 90 | 1009.9 |
| 20260505102051 | 58 | 119 | 2.0 | 5.0 | 0.00 | 0.01 | 0.01 | 91 | 1009.6 |
| 20260505101549 | 59 | 65 | 1.0 | 7.0 | 0.00 | 0.01 | 0.01 | 91 | 1009.6 |
| 20260505101045 | 59 | 10 | 0.0 | 5.0 | 0.00 | 0.01 | 0.01 | 91 | 1009.2 |
| 20260505100542 | 59 | 157 | 2.0 | 3.0 | 0.00 | 0.01 | 0.01 | 90 | 1009.3 |
| 20260505100039 | 60 | 144 | 0.0 | 7.0 | 0.00 | 0.01 | 0.01 | 90 | 1009.1 |
| 20260505095535 | 60 | 110 | 2.0 | 5.0 | 0.05 | 0.01 | 0.01 | 88 | 1009.1 |
| 20260505095032 | 61 | 130 | 3.0 | 5.0 | 0.05 | 0.01 | 0.01 | 85 | 1009.3 |
| 20260505094528 | 62 | 192 | 3.0 | 5.0 | 0.00 | 0.00 | 0.00 | 83 | 1008.9 |
| 20260505094025 | 61 | 165 | 0.0 | 5.0 | 0.00 | 0.00 | 0.00 | 87 | 1008.9 |
| 20260505093521 | 62 | 156 | 3.0 | 4.0 | 0.00 | 0.00 | 0.00 | 85 | 1008.7 |
| 20260505093019 | 62 | 289 | 2.0 | 2.0 | 0.00 | 0.00 | 0.00 | 83 | 1008.3 |
| 20260505092516 | 62 | 103 | 0.0 | 1.0 | 0.00 | 0.00 | 0.00 | 88 | 1008.1 |
| 20260505092014 | 62 | 114 | 2.0 | 2.0 | 0.00 | 0.00 | 0.00 | 86 | 1008.1 |
| 20260505091511 | 62 | 66 | 0.0 | 1.0 | 0.00 | 0.00 | 0.00 | 87 | 1007.9 |
| 20260505091009 | 62 | 95 | 0.0 | 2.0 | 0.00 | 0.00 | 0.00 | 87 | 1008.3 |
| 20260505090506 | 62 | 104 | 1.0 | 2.0 | 0.00 | 0.00 | 0.00 | 88 | 1008.1 |
| 20260505090004 | 62 | 126 | 0.0 | 2.0 | 0.00 | 0.00 | 0.00 | 87 | 1008.2 |
| 20260505085502 | 62 | 37 | 0.0 | 1.0 | 0.00 | 0.00 | 0.00 | 86 | 1008.0 |
| 20260505085000 | 62 | 131 | 0.0 | 1.0 | 0.00 | 0.00 | 0.00 | 87 | 1008.0 |
| 20260505084458 | 62 | 25 | 0.0 | 1.0 | 0.00 | 0.00 | 0.00 | 87 | 1007.8 |
| 20260505083955 | 62 | 135 | 0.0 | 2.0 | 0.00 | 0.00 | 0.00 | 87 | 1008.0 |
| 20260505083452 | 62 | 100 | 0.0 | 2.0 | 0.00 | 0.00 | 0.00 | 85 | 1008.1 |
| 20260505082949 | 62 | 129 | 0.0 | 1.0 | 0.00 | 0.00 | 0.00 | 84 | 1008.1 |
| 20260505082444 | 62 | 118 | 2.0 | 2.0 | 0.00 | 0.00 | 0.00 | 84 | 1008.2 |
| 20260505081942 | 63 | 38 | 0.0 | 1.0 | 0.00 | 0.00 | 0.00 | 82 | 1008.1 |
| 20260505081438 | 63 | 48 | 0.0 | 2.0 | 0.00 | 0.00 | 0.00 | 81 | 1008.2 |
| 20260505080935 | 64 | 357 | 0.0 | 2.0 | 0.00 | 0.00 | 0.00 | 78 | 1008.3 |
| 20260505080431 | 65 | 141 | 0.0 | 0.0 | 0.00 | 0.00 | 0.00 | 77 | 1008.4 |
| 20260505075926 | 65 | 123 | 0.0 | 3.0 | 0.00 | 0.00 | 0.00 | 74 | 1008.2 |
| 20260505075424 | 65 | 64 | 0.0 | 2.0 | 0.00 | 0.00 | 0.00 | 69 | 1008.7 |
| 20260505074921 | 65 | 50 | 0.0 | 1.0 | 0.00 | 0.00 | 0.00 | 69 | 1008.7 |
| 20260505074418 | 66 | 142 | 0.0 | 1.0 | 0.00 | 0.00 | 0.00 | 71 | 1008.8 |
| 20260505073915 | 66 | 108 | 2.0 | 2.0 | 0.00 | 0.00 | 0.00 | 69 | 1008.6 |
| 20260505073413 | 66 | 63 | 0.0 | 2.0 | 0.00 | 0.00 | 0.00 | 68 | 1008.6 |
| 20260505072910 | 66 | 129 | 3.0 | 3.0 | 0.00 | 0.00 | 0.00 | 69 | 1008.4 |
| 20260505072406 | 66 | 112 | 1.0 | 3.0 | 0.00 | 0.00 | 0.00 | 67 | 1008.6 |
| 20260505071902 | 66 | 123 | 1.0 | 3.0 | 0.00 | 0.00 | 0.00 | 68 | 1008.5 |
| 20260505071358 | 66 | 176 | 0.0 | 3.0 | 0.00 | 0.00 | 0.00 | 68 | 1008.6 |
| 20260505070857 | 67 | 143 | 3.0 | 6.0 | 0.00 | 0.00 | 0.00 | 68 | 1008.5 |
| 20260505070353 | 67 | 98 | 0.0 | 3.0 | 0.00 | 0.00 | 0.00 | 67 | 1008.8 |
| 20260505065848 | 67 | 109 | 2.0 | 8.0 | 0.00 | 0.00 | 0.00 | 68 | 1008.8 |
| 20260505065345 | 69 | 89 | 3.0 | 4.0 | 0.00 | 0.00 | 0.00 | 67 | 1008.6 |
| 20260505064842 | 69 | 27 | 1.0 | 2.0 | 0.00 | 0.00 | 0.00 | 63 | 1007.8 |
| 20260505064339 | 69 | 198 | 2.0 | 3.0 | 0.00 | 0.00 | 0.00 | 63 | 1007.5 |
| 20260505063838 | 69 | 149 | 2.0 | 4.0 | 0.00 | 0.00 | 0.00 | 63 | 1007.6 |
| 20260505063333 | 69 | 157 | 1.0 | 4.0 | 0.00 | 0.00 | 0.00 | 63 | 1007.4 |
| 20260505062830 | 69 | 123 | 2.0 | 4.0 | 0.00 | 0.00 | 0.00 | 63 | 1007.5 |
| 20260505062327 | 69 | 231 | 2.0 | 3.0 | 0.00 | 0.00 | 0.00 | 63 | 1007.7 |
| 20260505061824 | 69 | 179 | 0.0 | 9.0 | 0.00 | 0.00 | 0.00 | 62 | 1007.7 |
| 20260505061322 | 69 | 165 | 2.0 | 7.0 | 0.00 | 0.00 | 0.00 | 63 | 1007.5 |
| 20260505060820 | 69 | 89 | 0.0 | 6.0 | 0.00 | 0.00 | 0.00 | 63 | 1007.3 |
| 20260505060316 | 69 | 133 | 3.0 | 4.0 | 0.00 | 0.00 | 0.00 | 63 | 1007.4 |
| 20260505055812 | 69 | 134 | 1.0 | 3.0 | 0.00 | 0.00 | 0.00 | 64 | 1007.2 |
| 20260505055308 | 69 | 172 | 3.0 | 4.0 | 0.00 | 0.00 | 0.00 | 64 | 1007.1 |
| 20260505054806 | 70 | 178 | 1.0 | 5.0 | 0.00 | 0.00 | 0.00 | 62 | 1007.1 |
| 20260505054303 | 69 | 231 | 0.0 | 5.0 | 0.00 | 0.00 | 0.00 | 62 | 1007.0 |
| 20260505053801 | 70 | 173 | 1.0 | 3.0 | 0.00 | 0.00 | 0.00 | 62 | 1006.8 |
| 20260505053258 | 70 | 168 | 3.0 | 4.0 | 0.00 | 0.00 | 0.00 | 61 | 1007.0 |
| 20260505052755 | 70 | 268 | 2.0 | 7.0 | 0.00 | 0.00 | 0.00 | 61 | 1006.7 |
| 20260505052252 | 70 | 277 | 0.0 | 8.0 | 0.00 | 0.00 | 0.00 | 61 | 1006.8 |
| 20260505051748 | 70 | 189 | 2.0 | 6.0 | 0.00 | 0.00 | 0.00 | 60 | 1006.6 |
| 20260505051246 | 70 | 207 | 3.0 | 6.0 | 0.00 | 0.00 | 0.00 | 60 | 1006.5 |
| 20260505050744 | 70 | 229 | 2.0 | 4.0 | 0.00 | 0.00 | 0.00 | 60 | 1006.6 |
| 20260505050243 | 70 | 101 | 5.0 | 6.0 | 0.00 | 0.00 | 0.00 | 61 | 1006.6 |
| 20260505041712 | 71 | 171 | 4.0 | 10.0 | 0.00 | 0.15 | 0.15 | 59 | 1006.3 |
| 20260505041209 | 71 | 236 | 2.0 | 5.0 | 0.00 | 0.15 | 0.15 | 59 | 1006.3 |
| 20260505040706 | 71 | 120 | 2.0 | 5.0 | 0.00 | 0.15 | 0.15 | 59 | 1006.5 |
| 20260505040204 | 71 | 124 | 2.0 | 5.0 | 0.00 | 0.15 | 0.15 | 58 | 1006.6 |
| 20260505035700 | 72 | 130 | 0.0 | 5.0 | 0.00 | 0.15 | 0.15 | 58 | 1006.7 |
| 20260505035156 | 72 | 135 | 2.0 | 4.0 | 0.00 | 0.15 | 0.15 | 58 | 1006.7 |
| 20260505034653 | 72 | 161 | 0.0 | 4.0 | 0.00 | 0.15 | 0.15 | 57 | 1006.9 |
| 20260505034150 | 72 | 114 | 2.0 | 6.0 | 0.00 | 0.15 | 0.15 | 58 | 1006.9 |
| 20260505033646 | 72 | 175 | 2.0 | 7.0 | 0.00 | 0.15 | 0.15 | 57 | 1006.9 |
| 20260505033145 | 72 | 184 | 1.0 | 6.0 | 0.00 | 0.15 | 0.15 | 58 | 1006.7 |
| 20260505032643 | 72 | 155 | 0.0 | 3.0 | 0.00 | 0.15 | 0.15 | 58 | 1006.9 |
| 20260505032138 | 72 | 202 | 0.0 | 3.0 | 0.00 | 0.15 | 0.15 | 58 | 1007.0 |
| 20260505031636 | 72 | 236 | 0.0 | 3.0 | 0.00 | 0.15 | 0.15 | 58 | 1006.7 |
| 20260505031132 | 72 | 176 | 0.0 | 2.0 | 0.00 | 0.15 | 0.15 | 58 | 1007.0 |
| 20260505030629 | 73 | 133 | 0.0 | 4.0 | 0.00 | 0.15 | 0.15 | 57 | 1006.7 |
| 20260505030125 | 73 | 253 | 0.0 | 3.0 | 0.00 | 0.15 | 0.15 | 57 | 1006.7 |
| 20260505025621 | 73 | 171 | 0.0 | 4.0 | 0.00 | 0.15 | 0.15 | 56 | 1006.5 |
| 20260505025120 | 73 | 10 | 1.0 | 2.0 | 0.00 | 0.15 | 0.15 | 56 | 1006.6 |
| 20260505024617 | 73 | 142 | 0.0 | 2.0 | 0.00 | 0.15 | 0.15 | 58 | 1006.6 |
| 20260505024114 | 73 | 186 | 0.0 | 3.0 | 0.00 | 0.15 | 0.15 | 60 | 1006.3 |
| 20260505023611 | 73 | 251 | 1.0 | 3.0 | 0.00 | 0.15 | 0.15 | 57 | 1006.2 |
| 20260505023109 | 73 | 226 | 1.0 | 3.0 | 0.00 | 0.15 | 0.15 | 57 | 1006.3 |
| 20260505022606 | 72 | 157 | 1.0 | 2.0 | 0.00 | 0.15 | 0.15 | 58 | 1006.1 |
| 20260505022103 | 71 | 253 | 2.0 | 3.0 | 0.00 | 0.15 | 0.15 | 62 | 1005.9 |
| 20260505021600 | 71 | 117 | 2.0 | 3.0 | 0.00 | 0.15 | 0.15 | 67 | 1006.1 |
| 20260505021056 | 71 | 82 | 0.0 | 1.0 | 0.00 | 0.15 | 0.15 | 69 | 1006.0 |
| 20260505020556 | 72 | 155 | 1.0 | 1.0 | 0.00 | 0.15 | 0.15 | 66 | 1005.8 |
| 20260505020053 | 73 | 89 | 0.0 | 1.0 | 0.00 | 0.15 | 0.15 | 62 | 1005.6 |
| 20260505015550 | 73 | 191 | 1.0 | 2.0 | 0.00 | 0.15 | 0.15 | 58 | 1005.5 |
| 20260505015047 | 73 | 152 | 2.0 | 3.0 | 0.00 | 0.15 | 0.15 | 65 | 1005.6 |
| 20260505014544 | 74 | 157 | 1.0 | 3.0 | 0.00 | 0.15 | 0.15 | 63 | 1005.4 |
| 20260505014041 | 73 | 247 | 1.0 | 6.0 | 0.00 | 0.15 | 0.15 | 56 | 1005.5 |
| 20260505013538 | 73 | 194 | 0.0 | 4.0 | 0.00 | 0.15 | 0.15 | 55 | 1005.3 |
| 20260505013036 | 74 | 293 | 1.0 | 3.0 | 0.00 | 0.15 | 0.15 | 63 | 1005.4 |
| 20260505012534 | 73 | 143 | 2.0 | 4.0 | 0.00 | 0.15 | 0.15 | 57 | 1005.2 |
| 20260505012030 | 74 | 147 | 0.0 | 3.0 | 0.00 | 0.15 | 0.15 | 55 | 1005.4 |
| 20260505011526 | 75 | 52 | 0.0 | 3.0 | 0.00 | 0.15 | 0.15 | 54 | 1005.2 |
| 20260505011023 | 75 | 171 | 3.0 | 4.0 | 0.00 | 0.15 | 0.15 | 54 | 1005.3 |
| 20260505010518 | 75 | 148 | 0.0 | 6.0 | 0.00 | 0.15 | 0.15 | 54 | 1005.2 |
| 20260505010015 | 75 | 156 | 0.0 | 6.0 | 0.00 | 0.15 | 0.15 | 54 | 1005.1 |
| 20260505005512 | 75 | 155 | 0.0 | 4.0 | 0.00 | 0.15 | 0.15 | 54 | 1004.9 |
| 20260505005009 | 75 | 230 | 0.0 | 4.0 | 0.00 | 0.15 | 0.15 | 53 | 1005.0 |
| 20260505004506 | 75 | 238 | 0.0 | 5.0 | 0.00 | 0.15 | 0.15 | 54 | 1005.0 |
| 20260505004003 | 76 | 225 | 1.0 | 2.0 | 0.00 | 0.15 | 0.15 | 54 | 1004.7 |
| 20260505003500 | 76 | 178 | 2.0 | 3.0 | 0.00 | 0.15 | 0.15 | 55 | 1004.6 |
| 20260505002956 | 76 | 191 | 1.0 | 3.0 | 0.00 | 0.15 | 0.15 | 52 | 1004.6 |
| 20260505002452 | 77 | 199 | 1.0 | 3.0 | 0.00 | 0.15 | 0.15 | 52 | 1004.8 |
| 20260505001951 | 77 | 81 | 0.0 | 4.0 | 0.00 | 0.15 | 0.15 | 51 | 1004.6 |
| 20260505001448 | 77 | 244 | 2.0 | 3.0 | 0.00 | 0.15 | 0.15 | 50 | 1004.8 |
| 20260505000945 | 78 | 242 | 0.0 | 3.0 | 0.00 | 0.15 | 0.15 | 50 | 1004.6 |
| 20260505000443 | 78 | 144 | 2.0 | 5.0 | 0.00 | 0.15 | 0.15 | 49 | 1004.7 |
| 20260504235940 | 78 | 196 | 0.0 | 3.0 | 0.00 | 0.15 | 0.15 | 50 | 1004.5 |
| 20260504235437 | 79 | 274 | 2.0 | 10.0 | 0.00 | 0.15 | 0.15 | 48 | 1004.5 |
| 20260504234933 | 79 | 267 | 3.0 | 9.0 | 0.00 | 0.15 | 0.15 | 49 | 1004.4 |
| 20260504234431 | 79 | 207 | 1.0 | 5.0 | 0.00 | 0.15 | 0.15 | 50 | 1004.5 |
| 20260504233927 | 79 | 156 | 2.0 | 4.0 | 0.00 | 0.15 | 0.15 | 50 | 1004.6 |
| 20260504233423 | 79 | 284 | 2.0 | 11.0 | 0.00 | 0.15 | 0.15 | 49 | 1004.8 |
| 20260504232919 | 79 | 163 | 2.0 | 7.0 | 0.00 | 0.15 | 0.15 | 49 | 1004.5 |
| 20260504232417 | 80 | 288 | 0.0 | 8.0 | 0.00 | 0.15 | 0.15 | 48 | 1004.8 |
| 20260504231913 | 79 | 131 | 2.0 | 9.0 | 0.00 | 0.15 | 0.15 | 49 | 1004.9 |
| 20260504231404 | 80 | 216 | 1.0 | 7.0 | 0.00 | 0.15 | 0.15 | 48 | 1004.9 |
| 20260504230901 | 80 | 156 | 3.0 | 6.0 | 0.00 | 0.15 | 0.15 | 47 | 1005.1 |
| 20260504230358 | 80 | 149 | 3.0 | 7.0 | 0.00 | 0.15 | 0.15 | 49 | 1005.2 |
| 20260504225857 | 79 | 195 | 0.0 | 3.0 | 0.00 | 0.15 | 0.15 | 55 | 1005.3 |
| 20260504225353 | 78 | 130 | 2.0 | 4.0 | 0.00 | 0.15 | 0.15 | 56 | 1005.2 |
| 20260504224851 | 77 | 223 | 2.0 | 6.0 | 0.00 | 0.15 | 0.15 | 62 | 1005.2 |
| 20260504224347 | 77 | 186 | 0.0 | 1.0 | 0.00 | 0.15 | 0.15 | 65 | 1005.3 |
| 20260504223844 | 77 | 51 | 0.0 | 1.0 | 0.00 | 0.15 | 0.15 | 67 | 1005.2 |
| 20260504223339 | 77 | 96 | 0.0 | 2.0 | 0.00 | 0.15 | 0.15 | 63 | 1005.4 |